Zurück zum Katalog

NIMBUS 2 DEB

AktivLEO
NORAD 28204·DEBRIS·🇺🇸 United States

Gestartet May 15, 1966 von Vandenberg Space Force Base

Loading…

Nächste Überflüge (nächste 24 Stunden)

TLE

AlterndSource: Space-Track

Epoche: Sep 12, 2026, 07:15 UTC

1 28204U 66040S   26255.30263316  .00003398  00000-0  34195-2 0  9993
2 28204 100.1778 188.7000 0029264 125.1251  27.4396 13.78058572642667

Verfolge NIMBUS 2 DEB in Echtzeit mit AllMySat

Download on the App Store